User: anonymous   Login
Location: Reading
(52.0000°N, 0.0000°E)
Time: 11:13:51
(UTC+01:00)
Language:

Iridium 41 - Orbit

View from above orbital plane
View from above orbital plane
View from above satellite
View from above satellite

Ground track
Ground track

The orbit data is extracted from the following two-line orbital elements,

1 25040U 97069B   17232.36723159  .00000131  00000-0  39714-4 0  9996
2 25040  86.3996 355.1257 0002360  95.9338 264.2126 14.34214975 35517
Epoch (UTC): 20 August 2017 08:48:48
Eccentricity: 0.0002360
inclination: 86.3996°
perigee height: 776 km
apogee height: 779 km
right ascension of ascending node: 355.1257°
argument of perigee: 95.9338°
revolutions per day: 14.34214975
mean anomaly at epoch: 264.2126°
orbit number at epoch: 3551

The dashed part of the orbit path shows where the satellite is in the earth's shadow,  

DLR